Completed Transactions


While some of the wheeling and dealing takes place over private messages, this is a list of successful transactions completed by site members using the Transactions Manager.

 DateType Member 1 Member 2 Details
334. 9-6-2018 Tradestevienicks77 jlcre2003  
333. 8-30-2018 Tradejlcre2003 EP  
332. 8-30-2018 Tradejlcre2003 gregman1000  
331. 8-27-2018 Tradejlcre2003 Abacks  
330. 8-24-2018 Tradejlcre2003 mzentko  
329. 8-21-2018 Tradejlcre2003 Tigerfan22  
328. 8-20-2018 Tradejlcre2003 Crod1991  
327. 8-20-2018 Tradejlcre2003 jfred1026  
326. 8-18-2018 Tradejlcre2003 jaysee88  
325. 8-13-2018 Tradejlcre2003 madballboy  
324. 8-13-2018 Tradetntcardsstg jlcre2003  
323. 8-11-2018 Tradejlcre2003 CubinSTLsets  
322. 8-11-2018 Tradejlcre2003 jimetal7212  
321. 8-10-2018 Tradejlcre2003 tsch67  
320. 8-9-2018 Tradejlcre2003 ketchupman36  
319. 8-9-2018 Tradejlcre2003 scrubeenie  
318. 8-8-2018 Tradenymarine914 jlcre2003  
317. 8-8-2018 Tradejlcre2003 Kaline6  
316. 8-7-2018 TradeSplinter_9 jlcre2003  
315. 8-6-2018 Tradejlcre2003 49ants  
314. 8-5-2018 Tradejlcre2003 Frank1142  
313. 8-4-2018 Tradejlcre2003 mrbama97  
312. 8-3-2018 Tradejlcre2003 randylaw  
311. 7-30-2018 Tradejlcre2003 860502  
310. 7-29-2018 TradeCKBeber329 jlcre2003  
309. 7-29-2018 TradeLugnut80 Jlcre2003  
308. 7-28-2018 Tradejlcre2003 GoSkins16-0  
307. 7-25-2018 TradeT206 jlcre2003  
306. 7-1-2018 Tradewoodmangb jlcre2003  
305. 6-28-2018 SaleBoomer1991 jlcre2003  
304. 6-23-2018 Tradeketchupman36 jlcre2003  
303. 6-20-2018 Tradejlcre2003 AirPete  
302. 6-18-2018 Tradebudler jlcre2003  
301. 6-14-2018 Tradejlcre2003 wackydog  
300. 6-13-2018 Tradejlcre2003 grim25  
299. 6-9-2018 Tradejlcre2003 Steelersfan  
298. 6-9-2018 Tradecashafe jlcre2003  
297. 6-5-2018 Tradewhoisrob jlcre2003  
296. 6-5-2018 Tradejlcre2003 pezNpirates  
295. 6-1-2018 TradeCubinSTLsets jlcre2003  
294. 6-1-2018 Tradejlcre2003 tsch67  
293. 5-31-2018 Tradeacalise jlcre2003  
292. 5-26-2018 Tradespazmatastic jlcre2003  
291. 5-26-2018 Tradejlcre2003 cnangle  
290. 5-25-2018 TradeColengco90 jlcre2003  
289. 5-24-2018 Tradegrote15 jlcre2003  
288. 5-24-2018 Tradejlcre2003 mhart55461  
287. 5-21-2018 Tradejlcre2003 jt58203  
286. 5-21-2018 Tradejlcre2003 deegsteach  
285. 5-21-2018 Tradejlcre2003 49ants  
284. 5-18-2018 Tradehafengr jlcre2003  
283. 5-18-2018 Tradejlcre2003 jaysee88  
282. 5-18-2018 Tradejlcre2003 spooknegen  
281. 5-2-2018 Tradejlcre2003 Setshot68  
280. 4-30-2018 TradeBerton Russell jlcre2003  
279. 4-30-2018 Tradejlcre2003 Bertons doubles  
278. 4-30-2018 Tradejlcre2003 SFC Temple  
277. 4-30-2018 Tradejlcre2003 DaveK_ND  
276. 4-30-2018 Tradejlcre2003 herkojerko  
275. 4-30-2018 Tradejlcre2003 jaysee88  
274. 4-2-2018 Tradejlcre2003 clmdesign  
273. 3-30-2018 Tradejlcre2003 Tigerfan22  
272. 3-24-2018 Tradejlcre2003 Hundomatic  
271. 3-24-2018 Tradejlcre2003 860502  
270. 3-20-2018 Tradewbaker01 jlcre2003  
269. 3-18-2018 Tradejlcre2003 hafengr  
268. 3-11-2018 Tradejlcre2003 AnalogKid  
267. 2-24-2018 Tradejlcre2003 madballboy  
266. 2-22-2018 Tradejlcre2003 Bizzork  
265. 2-20-2018 Tradejlcre2003 cnangle  
264. 2-17-2018 Tradejlcre2003 lilmysteri0  
263. 2-15-2018 Tradejlcre2003 ntlwhlr  
262. 2-15-2018 Tradejlcre2003 BigDog13  
261. 2-13-2018 Tradejlcre2003 colonel98801  
260. 2-12-2018 Tradejlcre2003 yankees234221  
259. 2-12-2018 Tradejlcre2003 BengalFan28  
258. 2-12-2018 TradeTraderJack jlcre2003  
257. 2-9-2018 Tradeparsley24 jlcre2003  
256. 2-8-2018 Trademadams30 jlcre2003  
255. 2-7-2018 Tradejlcre2003 junioredwards200  
254. 1-31-2018 TradeColengco90 jlcre2003  
253. 1-29-2018 Tradejlcre2003 49ants  
252. 1-26-2018 Tradejlcre2003 grote15  
251. 1-25-2018 Tradejlcre2003 junioredwards200  
250. 1-23-2018 Tradejlcre2003 madballboy  
249. 1-17-2018 Tradejlcre2003 jmiller4  
248. 1-16-2018 TradeSetshot68 jlcre2003  
247. 1-11-2018 Tradejlcre2003 Hittinaway  
246. 1-6-2018 Tradejlcre2003 cnangle  
245. 1-3-2018 Tradejlcre2003 msvoboda27  
244. 12-22-2017 Tradejlcre2003 GoSkins16-0  
243. 12-20-2017 Tradejlcre2003 randylaw  
242. 12-19-2017 Tradejlcre2003 Steelersfan  
241. 12-19-2017 Tradejlcre2003 irish77  
240. 12-18-2017 Tradeparsley24 jlcre2003  
239. 12-16-2017 Tradejlcre2003 49ants  
238. 12-16-2017 Tradebwvjones jlcre2003  
237. 11-29-2017 SaleBoomer1991 jlcre2003  
236. 11-22-2017 Tradejaysee88 jlcre2003  
235. 11-2-2017 Tradejlcre2003 Setshot68  

  

Copyright © 2018 The Trading Card Database LLC
Designated trademarks and brands are the property of their respective owners.